When you browse on this site, cookies collect data to enhance your experience and personalize the content and advertising you see.
Visit our Privacy Policy to learn more. By continuing to use the site, you agree to this use of cookies and data.
  • în România
  • Lista ţărilor
  • Pe 7 zile
  • Temperatura apei
  • Hartă satelitară
  • Meteo pe hartă
  • Widget-uri
  • user-avatar
    Intrare

    Meteo pe oră la Austin

    Astăzi, 18 Februarie, Luni

    Timp Temperatura Precipitaţii Vânt Presiune Umiditate
    00:00 +6°C° 0 mm 4 m/s 747 mmHg 53%
    01:00 +6°C° 0 mm 5 m/s 747 mmHg 53%
    02:00 +5°C° 0 mm 5 m/s 747 mmHg 54%
    03:00 +5°C° 0 mm 5 m/s 747 mmHg 53%
    04:00 +5°C° 0 mm 5 m/s 747 mmHg 52%
    05:00 +5°C° 0 mm 4 m/s 747 mmHg 55%
    06:00 +5°C° 0 mm 4 m/s 748 mmHg 54%
    07:00 +6°C° 0 mm 5 m/s 748 mmHg 53%
    08:00 +5°C° 0 mm 6 m/s 749 mmHg 52%
    09:00 +8°C° 0 mm 6 m/s 749 mmHg 49%
    10:00 +9°C° 0 mm 6 m/s 749 mmHg 46%
    11:00 +11°C° 0 mm 6 m/s 749 mmHg 43%
    12:00 +11°C° 0 mm 6 m/s 749 mmHg 42%
    13:00 +13°C° 0 mm 6 m/s 748 mmHg 42%
    14:00 +14°C° 0 mm 6 m/s 748 mmHg 41%
    15:00 +13°C° 0 mm 5 m/s 748 mmHg 45%
    16:00 +12°C° 0 mm 5 m/s 748 mmHg 49%
    17:00 +12°C° 0 mm 4 m/s 747 mmHg 53%
    18:00 +11°C° 0 mm 4 m/s 748 mmHg 55%
    19:00 +10°C° 0 mm 4 m/s 748 mmHg 57%
    20:00 +8°C° 0 mm 4 m/s 749 mmHg 59%
    21:00 +8°C° 0 mm 4 m/s 748 mmHg 60%
    22:00 +8°C° 0 mm 5 m/s 748 mmHg 61%
    23:00 +7°C° 0 mm 5 m/s 748 mmHg 62%

    Mâine, 19 Februarie, Marţi

    Timp Temperatura Precipitaţii Vânt Presiune Umiditate
    00:00 +7°C° 0 mm 5 m/s 747 mmHg 62%
    01:00 +7°C° 0 mm 5 m/s 747 mmHg 61%
    02:00 +7°C° 0 mm 5 m/s 747 mmHg 61%
    03:00 +7°C° 0.1 mm 4 m/s 746 mmHg 65%
    04:00 +7°C° 0.1 mm 4 m/s 746 mmHg 69%
    05:00 +7°C° 0.1 mm 4 m/s 746 mmHg 74%
    06:00 +7°C° 0.3 mm 4 m/s 746 mmHg 78%
    07:00 +6°C° 0.3 mm 4 m/s 746 mmHg 82%
    08:00 +6°C° 0.3 mm 4 m/s 746 mmHg 86%
    09:00 +6°C° 0.4 mm 4 m/s 745 mmHg 87%
    10:00 +6°C° 0.4 mm 4 m/s 745 mmHg 88%
    11:00 +7°C° 0.4 mm 3 m/s 744 mmHg 90%
    12:00 +8°C° 0.1 mm 3 m/s 743 mmHg 89%
    13:00 +8°C° 0.1 mm 3 m/s 742 mmHg 89%
    14:00 +8°C° 0.1 mm 3 m/s 741 mmHg 88%
    15:00 +8°C° 0.1 mm 3 m/s 741 mmHg 89%
    16:00 +8°C° 0.1 mm 3 m/s 740 mmHg 89%
    17:00 +9°C° 0.1 mm 2 m/s 740 mmHg 90%
    18:00 +8°C° 0 mm 2 m/s 740 mmHg 92%
    19:00 +8°C° 0 mm 2 m/s 740 mmHg 93%
    20:00 +8°C° 0 mm 2 m/s 739 mmHg 95%
    21:00 +9°C° 0.1 mm 2 m/s 740 mmHg 94%
    22:00 +10°C° 0.1 mm 2 m/s 740 mmHg 93%
    23:00 +10°C° 0.1 mm 2 m/s 741 mmHg 92%

    Poimâine, 20 Februarie, Miercuri

    Timp Temperatura Precipitaţii Vânt Presiune Umiditate
    00:00 +10°C° 0.1 mm 2 m/s 741 mmHg 92%
    01:00 +10°C° 0.1 mm 2 m/s 741 mmHg 93%
    02:00 +10°C° 0.1 mm 3 m/s 741 mmHg 93%
    03:00 +9°C° 0 mm 3 m/s 741 mmHg 92%
    04:00 +9°C° 0 mm 3 m/s 741 mmHg 91%
    05:00 +9°C° 0 mm 3 m/s 742 mmHg 90%
    06:00 +10°C° 0 mm 4 m/s 742 mmHg 77%
    07:00 +10°C° 0 mm 4 m/s 743 mmHg 65%
    08:00 +11°C° 0 mm 4 m/s 744 mmHg 53%
    09:00 +13°C° 0 mm 5 m/s 744 mmHg 44%
    10:00 +15°C° 0 mm 5 m/s 744 mmHg 35%
    11:00 +17°C° 0 mm 5 m/s 744 mmHg 27%
    12:00 +19°C° 0 mm 5 m/s 743 mmHg 25%
    13:00 +19°C° 0 mm 4 m/s 742 mmHg 23%
    14:00 +20°C° 0 mm 4 m/s 742 mmHg 21%
    15:00 +19°C° 0 mm 3 m/s 742 mmHg 25%
    16:00 +18°C° 0 mm 2 m/s 742 mmHg 28%
    17:00 +17°C° 0 mm 2 m/s 742 mmHg 31%
    18:00 +15°C° 0 mm 2 m/s 742 mmHg 33%
    19:00 +14°C° 0 mm 2 m/s 743 mmHg 36%
    20:00 +13°C° 0 mm 2 m/s 743 mmHg 38%
    21:00 +12°C° 0 mm 2 m/s 743 mmHg 40%
    22:00 +12°C° 0 mm 2 m/s 743 mmHg 43%
    23:00 +10°C° 0 mm 2 m/s 743 mmHg 45%

    21 Februarie, Joi

    Timp Temperatura Precipitaţii Vânt Presiune Umiditate
    00:00 +11°C° 0 mm 1 m/s 743 mmHg 46%
    01:00 +11°C° 0 mm 1 m/s 743 mmHg 47%
    02:00 +11°C° 0 mm 1 m/s 743 mmHg 48%
    03:00 +10°C° 0 mm 1 m/s 743 mmHg 50%
    04:00 +9°C° 0 mm 2 m/s 743 mmHg 52%
    05:00 +9°C° 0 mm 2 m/s 743 mmHg 53%
    06:00 +9°C° 0 mm 2 m/s 744 mmHg 54%
    07:00 +10°C° 0 mm 2 m/s 744 mmHg 55%
    08:00 +10°C° 0 mm 3 m/s 745 mmHg 56%
    09:00 +11°C° 0 mm 3 m/s 745 mmHg 57%
    10:00 +11°C° 0 mm 3 m/s 745 mmHg 58%
    11:00 +11°C° 0 mm 3 m/s 745 mmHg 60%
    12:00 +12°C° 0 mm 3 m/s 744 mmHg 61%
    13:00 +13°C° 0 mm 3 m/s 743 mmHg 63%
    14:00 +14°C° 0 mm 4 m/s 742 mmHg 64%
    15:00 +14°C° 0 mm 4 m/s 742 mmHg 69%
    16:00 +13°C° 0 mm 4 m/s 742 mmHg 74%
    17:00 +13°C° 0 mm 4 m/s 742 mmHg 78%
    18:00 +13°C° 0 mm 3 m/s 742 mmHg 82%
    19:00 +12°C° 0 mm 3 m/s 743 mmHg 86%
    20:00 +11°C° 0 mm 3 m/s 743 mmHg 90%
    21:00 +11°C° 0.1 mm 3 m/s 743 mmHg 91%
    22:00 +12°C° 0.1 mm 2 m/s 743 mmHg 91%
    23:00 +13°C° 0.1 mm 2 m/s 743 mmHg 92%

    22 Februarie, Vineri

    Timp Temperatura Precipitaţii Vânt Presiune Umiditate
    00:00 +13°C° 0.1 mm 2 m/s 743 mmHg 93%
    01:00 +13°C° 0.1 mm 2 m/s 743 mmHg 93%
    02:00 +13°C° 0.1 mm 2 m/s 742 mmHg 94%
    03:00 +13°C° 0 mm 2 m/s 742 mmHg 95%
    04:00 +14°C° 0 mm 2 m/s 742 mmHg 96%
    05:00 +14°C° 0 mm 2 m/s 742 mmHg 97%
    06:00 +15°C° 0.1 mm 2 m/s 743 mmHg 97%
    07:00 +15°C° 0.1 mm 2 m/s 743 mmHg 97%
    08:00 +16°C° 0.1 mm 2 m/s 743 mmHg 97%
    09:00 +16°C° 0.1 mm 2 m/s 743 mmHg 97%
    10:00 +17°C° 0.1 mm 2 m/s 743 mmHg 96%
    11:00 +19°C° 0.1 mm 1 m/s 743 mmHg 95%
    12:00 +19°C° 0.1 mm 1 m/s 742 mmHg 95%
    13:00 +20°C° 0.1 mm 1 m/s 742 mmHg 94%
    14:00 +20°C° 0.1 mm 1 m/s 741 mmHg 94%
    15:00 +20°C° 0.1 mm 1 m/s 741 mmHg 95%
    16:00 +20°C° 0.1 mm 1 m/s 741 mmHg 96%
    17:00 +20°C° 0.1 mm 1 m/s 741 mmHg 97%
    18:00 +20°C° 0 mm 1 m/s 741 mmHg 97%
    19:00 +19°C° 0 mm 2 m/s 741 mmHg 97%
    20:00 +19°C° 0 mm 2 m/s 741 mmHg 98%
    21:00 +19°C° 0 mm 3 m/s 741 mmHg 98%
    22:00 +19°C° 0 mm 3 m/s 741 mmHg 98%
    23:00 +20°C° 0 mm 4 m/s 741 mmHg 98%

    23 Februarie, Sâmbătă

    Timp Temperatura Precipitaţii Vânt Presiune Umiditate
    00:00 +20°C° 0.6 mm 3 m/s 741 mmHg 98%
    01:00 +20°C° 0.6 mm 3 m/s 740 mmHg 98%
    02:00 +20°C° 0.6 mm 3 m/s 740 mmHg 98%
    03:00 +20°C° 0.1 mm 3 m/s 740 mmHg 97%
    04:00 +20°C° 0.1 mm 3 m/s 739 mmHg 97%
    05:00 +21°C° 0.1 mm 4 m/s 739 mmHg 97%
    06:00 +21°C° 0.2 mm 5 m/s 739 mmHg 96%
    07:00 +22°C° 0.2 mm 6 m/s 740 mmHg 94%
    08:00 +22°C° 0.2 mm 7 m/s 740 mmHg 92%
    09:00 +22°C° 0.4 mm 7 m/s 740 mmHg 87%
    10:00 +23°C° 0.4 mm 6 m/s 740 mmHg 83%
    11:00 +23°C° 0.4 mm 6 m/s 740 mmHg 78%
    12:00 +26°C° 0 mm 6 m/s 740 mmHg 62%
    13:00 +27°C° 0 mm 6 m/s 739 mmHg 45%
    14:00 +29°C° 0 mm 6 m/s 739 mmHg 29%
    15:00 +27°C° 0 mm 6 m/s 739 mmHg 31%
    16:00 +26°C° 0 mm 6 m/s 740 mmHg 33%
    17:00 +23°C° 0 mm 6 m/s 740 mmHg 35%
    18:00 +22°C° 0 mm 5 m/s 741 mmHg 34%
    19:00 +20°C° 0 mm 5 m/s 742 mmHg 32%
    20:00 +19°C° 0 mm 5 m/s 743 mmHg 31%
    21:00 +17°C° 0 mm 5 m/s 743 mmHg 29%
    22:00 +16°C° 0 mm 5 m/s 743 mmHg 27%
    23:00 +15°C° 0 mm 4 m/s 743 mmHg 25%
    Arată mai mult